Brownwood, TX

11:04 AM CDT on July 24, 2017 (GMT -0500)
Brownwood Regional

Weather History for KBWD - November, 2012

Change the Weather History Date:

Monday, November 12, 2012

  Actual Average (KABI) Record (KABI)
Temperature  
Mean Temperature 44 °F -  
Max Temperature 57 °F 63 °F 85 °F (1955)
Min Temperature 30 °F 44 °F 20 °F (1911)
Degree Days  
Heating Degree Days 22    
Moisture  
Dew Point 22 °F    
Average Humidity 50    
Maximum Humidity 87    
Minimum Humidity 20    
Precipitation  
Precipitation 0.00 in - - ()
Sea Level Pressure  
Sea Level Pressure 30.44 in    
Wind  
Wind Speed 6 mph (NNE)    
Max Wind Speed 12 mph    
Max Gust Speed 18 mph    
Visibility 10 miles    
Events Snow    
Averages and records for this station are not official NWS values.
T = Trace of Precipitation, MM = Missing Value Source: NWS Daily Summary

Daily Weather History Graph

Daily Weather History Graph

Search for Another Location

Airport or City:

Trip Planner

Search our weather history database for the weather conditions in past years. The results will help you decide how hot, cold, wet, or windy it might be!

Date:

Astronomy

Nov. 12, 2012 Rise Set
Actual Time 7:01 AM CST 5:37 PM CST
Civil Twilight 6:36 AM CST 6:03 PM CST
Nautical Twilight 6:06 AM CST 6:32 PM CST
Astronomical Twilight 5:37 AM CST 7:01 PM CST
Moon 5:32 AM CST (11/12) 4:42 PM CST (11/12)
Length of Visible Light 11h 27m
Length of Day
10h 35m
Waning Crescent, 2% of the Moon is Illuminated
Nov 12
Waning Crescent
Nov 13
New
Nov 20
First Quarter
Nov 28
Full
Dec 6
Last Quarter

Hourly Weather History & Observations

Time (CST) Temp. Windchill Dew Point Humidity Pressure Visibility Wind Dir Wind Speed Gust Speed Precip Events Conditions
12:15 AM 44.6 °F 40.2 °F 37.4 °F 76% 30.30 in 10.0 mi North 8.1 mph - N/A   Scattered Clouds
12:35 AM 44.6 °F 41.4 °F 35.6 °F 71% 30.31 in 10.0 mi North 5.8 mph - N/A   Mostly Cloudy
12:55 AM 42.8 °F 38.6 °F 35.6 °F 76% 30.31 in 10.0 mi North 6.9 mph - N/A   Mostly Cloudy
1:15 AM 41.0 °F 36.4 °F 35.6 °F 81% 30.32 in 10.0 mi North 6.9 mph - N/A   Scattered Clouds
1:35 AM 41.0 °F 36.4 °F 35.6 °F 81% 30.33 in 10.0 mi NNW 6.9 mph - N/A   Clear
1:55 AM 39.2 °F 33.6 °F 33.8 °F 81% 30.34 in 10.0 mi NNW 8.1 mph - N/A   Clear
2:15 AM 39.2 °F 34.2 °F 32.0 °F 75% 30.34 in 10.0 mi NNW 6.9 mph - N/A   Partly Cloudy
2:35 AM 39.2 °F 33.6 °F 32.0 °F 75% 30.34 in 10.0 mi NNW 8.1 mph - N/A   Scattered Clouds
2:55 AM 37.4 °F 31.4 °F 32.0 °F 81% 30.35 in 10.0 mi NNW 8.1 mph - N/A   Scattered Clouds
3:15 AM 37.4 °F 31.4 °F 32.0 °F 81% 30.35 in 10.0 mi NNW 8.1 mph - N/A   Partly Cloudy
3:35 AM 35.6 °F 28.6 °F 32.0 °F 87% 30.36 in 10.0 mi NW 9.2 mph - N/A   Partly Cloudy
3:55 AM 35.6 °F 29.9 °F 32.0 °F 87% 30.36 in 10.0 mi NNW 6.9 mph - N/A   Partly Cloudy
4:15 AM 35.6 °F 28.6 °F 32.0 °F 87% 30.37 in 10.0 mi NNW 9.2 mph - N/A   Partly Cloudy
4:35 AM 35.6 °F 28.0 °F 32.0 °F 87% 30.38 in 10.0 mi NNW 10.4 mph - N/A   Partly Cloudy
4:55 AM 35.6 °F 31.7 °F 30.2 °F 81% 30.39 in 10.0 mi NNW 4.6 mph - N/A   Partly Cloudy
5:15 AM 35.6 °F 30.7 °F 30.2 °F 81% 30.40 in 10.0 mi NW 5.8 mph - N/A   Partly Cloudy
5:35 AM 33.8 °F 29.6 °F 30.2 °F 87% 30.40 in 10.0 mi NNW 4.6 mph - N/A   Partly Cloudy
5:55 AM 32.0 °F - 28.4 °F 87% 30.42 in 10.0 mi Calm Calm - N/A   Partly Cloudy
6:15 AM 32.0 °F 27.5 °F 28.4 °F 87% 30.42 in 10.0 mi NW 4.6 mph - N/A   Partly Cloudy
6:35 AM 32.0 °F 26.4 °F 26.6 °F 80% 30.43 in 10.0 mi NNW 5.8 mph - N/A   Clear
6:55 AM 32.0 °F 27.5 °F 26.6 °F 80% 30.44 in 10.0 mi WNW 4.6 mph - N/A   Clear
7:15 AM 32.0 °F 27.5 °F 26.6 °F 80% 30.46 in 10.0 mi NW 4.6 mph - N/A   Clear
7:35 AM 33.8 °F - 28.4 °F 81% 30.48 in 10.0 mi Calm Calm - N/A   Clear
7:55 AM 35.6 °F - 28.4 °F 75% 30.48 in 10.0 mi Calm Calm - N/A   Clear
8:15 AM 39.2 °F 33.0 °F 23.0 °F 52% 30.48 in 10.0 mi NNE 9.2 mph - N/A   Clear
8:35 AM 39.2 °F 33.0 °F 23.0 °F 52% 30.48 in 10.0 mi NE 9.2 mph - N/A   Clear
8:55 AM 41.0 °F 34.3 °F 19.4 °F 42% 30.49 in 10.0 mi NE 11.5 mph 17.3 mph N/A   Clear
9:15 AM 41.0 °F 34.3 °F 19.4 °F 42% 30.50 in 10.0 mi ENE 11.5 mph 18.4 mph N/A   Clear
9:35 AM 44.6 °F 38.8 °F 17.6 °F 34% 30.50 in 10.0 mi NE 11.5 mph - N/A   Clear
9:55 AM 44.6 °F 39.2 °F 15.8 °F 31% 30.51 in 10.0 mi ENE 10.4 mph - N/A   Clear
10:15 AM 44.6 °F 40.2 °F 15.8 °F 31% 30.51 in 10.0 mi NE 8.1 mph - N/A   Clear
10:35 AM 46.4 °F 43.5 °F 17.6 °F 32% 30.52 in 10.0 mi NE 5.8 mph - N/A   Clear
10:55 AM 46.4 °F 41.9 °F 15.8 °F 29% 30.51 in 10.0 mi NE 9.2 mph - N/A   Clear
11:15 AM 48.2 °F - 15.8 °F 27% 30.51 in 10.0 mi North 5.8 mph - N/A   Clear
11:35 AM 48.2 °F - 17.6 °F 30% 30.50 in 10.0 mi NE 6.9 mph - N/A   Clear
11:55 AM 50.0 °F - 17.6 °F 28% 30.49 in 10.0 mi NNE 6.9 mph - N/A   Clear
12:15 PM 50.0 °F - 17.6 °F 28% 30.48 in 10.0 mi SE 3.5 mph - N/A   Clear
12:35 PM 51.8 °F - 15.8 °F 24% 30.48 in 10.0 mi NNW 8.1 mph - N/A   Clear
12:55 PM 53.6 °F - 15.8 °F 22% 30.47 in 10.0 mi WNW 4.6 mph - N/A   Clear
1:15 PM 53.6 °F - 15.8 °F 22% 30.46 in 10.0 mi NNE 5.8 mph - N/A   Clear
1:35 PM 55.4 °F - 15.8 °F 21% 30.45 in 10.0 mi North 6.9 mph - N/A   Clear
1:55 PM 55.4 °F - 15.8 °F 21% 30.44 in 10.0 mi NE 6.9 mph - N/A   Clear
2:15 PM 55.4 °F - 15.8 °F 21% 30.43 in 10.0 mi NE 8.1 mph - N/A   Clear
2:35 PM 55.4 °F - 15.8 °F 21% 30.44 in 10.0 mi NE 8.1 mph - N/A   Clear
2:55 PM 57.2 °F - 15.8 °F 20% 30.43 in 10.0 mi NNE 10.4 mph - N/A   Clear
3:15 PM 57.2 °F - 15.8 °F 20% 30.43 in 10.0 mi North 6.9 mph - N/A   Clear
3:35 PM 57.2 °F - 15.8 °F 20% 30.43 in 10.0 mi NNE 8.1 mph - N/A   Clear
3:55 PM 55.4 °F - 15.8 °F 21% 30.43 in 10.0 mi NE 6.9 mph - N/A   Clear
4:15 PM 55.4 °F - 14.0 °F 20% 30.43 in 10.0 mi NE 5.8 mph - N/A   Clear
4:35 PM 55.4 °F - 14.0 °F 20% 30.43 in 10.0 mi NE 6.9 mph - N/A   Clear
4:55 PM 55.4 °F - 15.8 °F 21% 30.43 in 10.0 mi NE 8.1 mph - N/A   Clear
5:15 PM 53.6 °F - 15.8 °F 22% 30.43 in 10.0 mi NE 4.6 mph - N/A   Clear
5:35 PM 50.0 °F - 14.0 °F 24% 30.43 in 10.0 mi ENE 5.8 mph - N/A   Clear
5:55 PM 48.2 °F - 15.8 °F 27% 30.43 in 10.0 mi ENE 4.6 mph - N/A   Clear
6:15 PM 46.4 °F 44.3 °F 15.8 °F 29% 30.44 in 10.0 mi ENE 4.6 mph - N/A   Clear
6:35 PM 44.6 °F 43.1 °F 15.8 °F 31% 30.45 in 10.0 mi ENE 3.5 mph - N/A   Clear
6:55 PM 44.6 °F 43.1 °F 15.8 °F 31% 30.46 in 10.0 mi ENE 3.5 mph - N/A   Clear
7:15 PM 41.0 °F 39.0 °F 15.8 °F 36% 30.46 in 10.0 mi ENE 3.5 mph - N/A   Clear
7:35 PM 41.0 °F 39.0 °F 17.6 °F 39% 30.47 in 10.0 mi ENE 3.5 mph - N/A   Clear
7:55 PM 39.2 °F 35.9 °F 17.6 °F 42% 30.47 in 10.0 mi ENE 4.6 mph - N/A   Clear
8:15 PM 37.4 °F 34.9 °F 15.8 °F 41% 30.47 in 10.0 mi ENE 3.5 mph - N/A Snow Light Snow
8:35 PM 39.2 °F - 17.6 °F 42% 30.48 in 10.0 mi Calm Calm - N/A   Clear
8:55 PM 39.2 °F - 17.6 °F 42% 30.49 in 10.0 mi Calm Calm - N/A   Clear
9:15 PM 35.6 °F - 17.6 °F 48% 30.49 in 10.0 mi Calm Calm - N/A   Clear
9:35 PM 35.6 °F - 17.6 °F 48% 30.49 in 10.0 mi Calm Calm - N/A   Clear
9:55 PM 32.0 °F - 17.6 °F 55% 30.49 in 10.0 mi Calm Calm - N/A   Clear
10:15 PM 32.0 °F - 17.6 °F 55% 30.49 in 10.0 mi North - - N/A   Clear
10:35 PM 32.0 °F - 17.6 °F 55% 30.50 in 10.0 mi North - - N/A   Clear
10:55 PM 32.0 °F - 19.4 °F 60% 30.50 in 10.0 mi Calm Calm - N/A   Clear
11:15 PM 30.2 °F - 15.8 °F 55% 30.51 in 10.0 mi Calm Calm - N/A   Clear
11:55 PM 32.0 °F - 19.4 °F 60% 30.50 in 10.0 mi Calm Calm - N/A   Clear